Feather Falls, CA

10:26 PM PST on February 06, 2016 (GMT -0800)
Oroville Municipal

Weather History for KOVE - January, 2013

Change the Weather History Date:

Wednesday, January 30, 2013

  Actual Average Record
Temperature  
Mean Temperature 50 °F -  
Max Temperature 59 °F 56 °F 71 °F (2015)
Min Temperature 41 °F 37 °F 24 °F (1975)
Degree Days  
Heating Degree Days 15    
Moisture  
Dew Point 40 °F    
Average Humidity 75    
Maximum Humidity 93    
Minimum Humidity 53    
Precipitation  
Precipitation 0.00 in - - ()
Sea Level Pressure  
Sea Level Pressure 30.33 in    
Wind  
Wind Speed 5 mph (ESE)    
Max Wind Speed 12 mph    
Max Gust Speed -    
Visibility 10 miles    
Events      
Averages and records for this station are not official NWS values.
T = Trace of Precipitation, MM = Missing Value Source: NWS Daily Summary

Daily Weather History Graph

Daily Weather History Graph

Search for Another Location

Airport or City:

Trip Planner

Search our weather history database for the weather conditions in past years. The results will help you decide how hot, cold, wet, or windy it might be!

Date:

Astronomy

Jan. 30, 2013 Rise Set
Actual Time 7:15 AM PST 5:24 PM PST
Civil Twilight 6:46 AM PST 5:53 PM PST
Nautical Twilight 6:14 AM PST 6:25 PM PST
Astronomical Twilight 5:43 AM PST 6:57 PM PST
Moon 9:27 PM PST (1/30) 8:47 AM PST (1/30)
Length of Visible Light 11h 06m
Length of Day
10h 09m
Waning Gibbous, 87% of the Moon is Illuminated
Jan 30
Waning Gibbous
Feb 3
Last Quarter
Feb 9
New
Feb 17
First Quarter
Feb 25
Full

Hourly Weather History & Observations

Time (PST) Temp. Windchill Dew Point Humidity Pressure Visibility Wind Dir Wind Speed Gust Speed Precip Events Conditions
12:53 AM 48.0 °F - 39.0 °F 71% 30.33 in 10.0 mi North 3.5 mph - N/A   Clear
1:53 AM 46.0 °F - 39.0 °F 76% 30.33 in 10.0 mi Calm Calm - N/A   Clear
2:53 AM 44.1 °F - 39.0 °F 82% 30.33 in 10.0 mi Calm Calm - N/A   Clear
3:53 AM 44.1 °F 42.5 °F 37.9 °F 79% 30.32 in 10.0 mi WNW 3.5 mph - N/A   Clear
4:53 AM 43.0 °F 38.8 °F 37.0 °F 80% 30.32 in 10.0 mi WNW 6.9 mph - N/A   Clear
5:53 AM 41.0 °F 37.1 °F 37.0 °F 86% 30.31 in 10.0 mi WNW 5.8 mph - N/A   Clear
6:53 AM 41.0 °F 37.1 °F 37.0 °F 86% 30.32 in 10.0 mi NW 5.8 mph - N/A   Clear
7:53 AM 42.1 °F - 37.0 °F 82% 30.35 in 10.0 mi Calm Calm - N/A   Clear
8:53 AM 45.0 °F 41.2 °F 39.9 °F 82% 30.37 in 10.0 mi SSE 6.9 mph - N/A   Clear
9:53 AM 48.9 °F - 41.0 °F 74% 30.38 in 10.0 mi SSE 11.5 mph - N/A   Clear
10:53 AM 51.1 °F - 41.0 °F 68% 30.38 in 10.0 mi SSE 9.2 mph - N/A   Clear
11:53 AM 54.0 °F - 42.1 °F 64% 30.36 in 10.0 mi South 9.2 mph - N/A   Clear
12:53 PM 55.9 °F - 43.0 °F 62% 30.32 in 10.0 mi South 8.1 mph - N/A   Clear
1:53 PM 57.9 °F - 42.1 °F 56% 30.31 in 10.0 mi South 8.1 mph - N/A   Clear
2:53 PM 59.0 °F - 42.1 °F 53% 30.29 in 10.0 mi South 6.9 mph - N/A   Clear
3:53 PM 57.9 °F - 42.1 °F 56% 30.29 in 10.0 mi SSE 9.2 mph - N/A   Clear
4:53 PM 55.9 °F - 42.1 °F 60% 30.29 in 10.0 mi SE 6.9 mph - N/A   Clear
5:53 PM 51.1 °F - 42.1 °F 71% 30.31 in 10.0 mi SE 6.9 mph - N/A   Clear
6:53 PM 51.1 °F - 43.0 °F 74% 30.31 in 10.0 mi East 5.8 mph - N/A   Clear
7:53 PM 48.0 °F - 42.1 °F 80% 30.32 in 10.0 mi ENE 5.8 mph - N/A   Clear
8:53 PM 45.0 °F 43.5 °F 41.0 °F 86% 30.32 in 10.0 mi NE 3.5 mph - N/A   Clear
9:53 PM 43.0 °F 40.3 °F 41.0 °F 93% 30.32 in 10.0 mi NE 4.6 mph - N/A   Clear
10:53 PM 43.0 °F 40.3 °F 41.0 °F 93% 30.32 in 10.0 mi NE 4.6 mph - N/A   Clear
11:53 PM 45.0 °F 42.6 °F 42.1 °F 90% 30.32 in 10.0 mi NE 4.6 mph - N/A   Clear